Year,Month,Day,Hour,Minute,Value (Times are PST for temperature in C)
2011,04,19,00,00,2.90
2011,04,19,00,01,2.90
2011,04,19,00,02,2.90
2011,04,19,00,03,3.00
2011,04,19,00,04,3.00
2011,04,19,00,05,3.00
2011,04,19,00,06,3.00
2011,04,19,00,07,3.10
2011,04,19,00,08,3.10
2011,04,19,00,09,3.10
2011,04,19,00,10,3.10
2011,04,19,00,11,3.10
2011,04,19,00,12,3.10
2011,04,19,00,13,3.10
2011,04,19,00,14,3.20
2011,04,19,00,15,3.30
2011,04,19,00,16,3.30
2011,04,19,00,17,3.30
2011,04,19,00,18,3.30
2011,04,19,00,19,3.30
2011,04,19,00,20,3.30
2011,04,19,00,21,3.30
2011,04,19,00,22,3.30
2011,04,19,00,23,3.30
2011,04,19,00,24,3.30
2011,04,19,00,25,3.20
2011,04,19,00,26,3.20
2011,04,19,00,27,3.20
2011,04,19,00,28,3.20
2011,04,19,00,29,3.20
2011,04,19,00,30,3.20
2011,04,19,00,31,3.20
2011,04,19,00,32,3.20
2011,04,19,00,33,3.20
2011,04,19,00,34,3.20
2011,04,19,00,35,3.20
2011,04,19,00,36,3.20
2011,04,19,00,37,3.20
2011,04,19,00,38,3.20
2011,04,19,00,39,3.20
2011,04,19,00,40,3.20
2011,04,19,00,41,3.20
2011,04,19,00,42,3.20
2011,04,19,00,43,3.20
2011,04,19,00,44,3.20
2011,04,19,00,45,3.20
2011,04,19,00,46,3.20
2011,04,19,00,47,3.20
2011,04,19,00,48,3.30
2011,04,19,00,49,3.30
2011,04,19,00,50,3.30
2011,04,19,00,51,3.30
2011,04,19,00,52,3.30
2011,04,19,00,53,3.30
2011,04,19,00,54,3.40
2011,04,19,00,55,3.50
2011,04,19,00,56,3.70
2011,04,19,00,57,3.90
2011,04,19,00,58,4.20
2011,04,19,00,59,4.40
2011,04,19,01,00,4.70
2011,04,19,01,01,4.80
2011,04,19,01,02,5.00
2011,04,19,01,03,5.10
2011,04,19,01,04,5.20
2011,04,19,01,05,5.20
2011,04,19,01,06,5.40
2011,04,19,01,07,5.50
2011,04,19,01,08,5.50
2011,04,19,01,09,5.60
2011,04,19,01,10,5.60
2011,04,19,01,11,5.70
2011,04,19,01,12,5.70
2011,04,19,01,13,5.70
2011,04,19,01,14,5.70
2011,04,19,01,15,5.70
2011,04,19,01,16,5.70
2011,04,19,01,17,5.70
2011,04,19,01,18,5.60
2011,04,19,01,19,5.60
2011,04,19,01,20,5.60
2011,04,19,01,21,5.50
2011,04,19,01,22,5.50
2011,04,19,01,23,5.40
2011,04,19,01,24,5.40
2011,04,19,01,25,5.30
2011,04,19,01,26,5.30
2011,04,19,01,27,5.30
2011,04,19,01,28,5.20
2011,04,19,01,29,5.20
2011,04,19,01,30,5.30
2011,04,19,01,31,5.30
2011,04,19,01,32,5.30
2011,04,19,01,33,5.40
2011,04,19,01,34,5.30
2011,04,19,01,35,5.30
2011,04,19,01,36,5.30
2011,04,19,01,37,5.20
2011,04,19,01,38,5.20
2011,04,19,01,39,5.20
2011,04,19,01,40,5.20
2011,04,19,01,41,5.20
2011,04,19,01,42,5.20
2011,04,19,01,43,5.10
2011,04,19,01,44,5.10
2011,04,19,01,45,4.90
2011,04,19,01,46,4.80
2011,04,19,01,47,4.60
2011,04,19,01,48,4.40
2011,04,19,01,49,4.20
2011,04,19,01,50,4.10
2011,04,19,01,51,3.90
2011,04,19,01,52,3.80
2011,04,19,01,53,3.70
2011,04,19,01,54,3.70
2011,04,19,01,55,3.60
2011,04,19,01,56,3.60
2011,04,19,01,57,3.60
2011,04,19,01,58,3.50
2011,04,19,01,59,3.50
2011,04,19,02,00,3.50
2011,04,19,02,01,3.50
2011,04,19,02,02,3.60
2011,04,19,02,03,3.70
2011,04,19,02,04,3.80
2011,04,19,02,05,3.80
2011,04,19,02,06,3.90
2011,04,19,02,07,4.00
2011,04,19,02,08,4.10
2011,04,19,02,09,4.20
2011,04,19,02,10,4.30
2011,04,19,02,11,4.40
2011,04,19,02,12,4.40
2011,04,19,02,13,4.50
2011,04,19,02,14,4.60
2011,04,19,02,15,4.70
2011,04,19,02,16,4.80
2011,04,19,02,17,4.90
2011,04,19,02,18,5.00
2011,04,19,02,19,5.00
2011,04,19,02,20,5.10
2011,04,19,02,21,5.10
2011,04,19,02,22,5.20
2011,04,19,02,23,5.20
2011,04,19,02,24,5.20
2011,04,19,02,25,5.30
2011,04,19,02,26,5.30
2011,04,19,02,27,5.40
2011,04,19,02,28,5.40
2011,04,19,02,29,5.40
2011,04,19,02,30,5.40
2011,04,19,02,31,5.40
2011,04,19,02,32,5.40
2011,04,19,02,33,5.40
2011,04,19,02,34,5.40
2011,04,19,02,35,5.30
2011,04,19,02,36,5.10
2011,04,19,02,37,5.00
2011,04,19,02,38,4.90
2011,04,19,02,39,4.70
2011,04,19,02,40,4.60
2011,04,19,02,41,4.50
2011,04,19,02,42,4.40
2011,04,19,02,43,4.30
2011,04,19,02,44,4.20
2011,04,19,02,45,4.20
2011,04,19,02,46,4.20
2011,04,19,02,47,4.20
2011,04,19,02,48,4.20
2011,04,19,02,49,4.10
2011,04,19,02,50,4.20
2011,04,19,02,51,4.20
2011,04,19,02,52,4.20
2011,04,19,02,53,4.30
2011,04,19,02,54,4.30
2011,04,19,02,55,4.40
2011,04,19,02,56,4.50
2011,04,19,02,57,4.50
2011,04,19,02,58,4.60
2011,04,19,02,59,4.70
2011,04,19,03,00,4.80
2011,04,19,03,01,4.80
2011,04,19,03,02,4.80
2011,04,19,03,03,4.80
2011,04,19,03,04,4.80
2011,04,19,03,05,4.80
2011,04,19,03,06,4.80
2011,04,19,03,07,4.80
2011,04,19,03,08,4.80
2011,04,19,03,09,4.70
2011,04,19,03,10,4.70
2011,04,19,03,11,4.70
2011,04,19,03,12,4.60
2011,04,19,03,13,4.60
2011,04,19,03,14,4.50
2011,04,19,03,15,4.50
2011,04,19,03,16,4.50
2011,04,19,03,17,4.50
2011,04,19,03,18,4.40
2011,04,19,03,19,4.40
2011,04,19,03,20,4.40
2011,04,19,03,21,4.40
2011,04,19,03,22,4.40
2011,04,19,03,23,4.40
2011,04,19,03,24,4.40
2011,04,19,03,25,4.30
2011,04,19,03,26,4.30
2011,04,19,03,27,4.30
2011,04,19,03,28,4.30
2011,04,19,03,29,4.20
2011,04,19,03,30,4.10
2011,04,19,03,31,4.00
2011,04,19,03,32,4.00
2011,04,19,03,33,3.90
2011,04,19,03,34,3.80
2011,04,19,03,35,3.80
2011,04,19,03,36,3.70
2011,04,19,03,37,3.70
2011,04,19,03,38,3.60
2011,04,19,03,39,3.60
2011,04,19,03,40,3.50
2011,04,19,03,41,3.50
2011,04,19,03,42,3.40
2011,04,19,03,43,3.40
2011,04,19,03,44,3.30
2011,04,19,03,45,3.30
2011,04,19,03,46,3.20
2011,04,19,03,47,3.20
2011,04,19,03,48,3.20
2011,04,19,03,49,3.10
2011,04,19,03,50,3.10
2011,04,19,03,51,3.00
2011,04,19,03,52,3.00
2011,04,19,03,53,2.90
2011,04,19,03,54,2.90
2011,04,19,03,55,2.90
2011,04,19,03,56,2.90
2011,04,19,03,57,2.80
2011,04,19,03,58,2.80
2011,04,19,03,59,2.80
2011,04,19,04,00,2.70
2011,04,19,04,01,2.70
2011,04,19,04,02,2.70
2011,04,19,04,03,2.60
2011,04,19,04,04,2.60
2011,04,19,04,05,2.60
2011,04,19,04,06,2.50
2011,04,19,04,07,2.50
2011,04,19,04,08,2.50
2011,04,19,04,09,2.40
2011,04,19,04,10,2.40
2011,04,19,04,11,2.40
2011,04,19,04,12,2.40
2011,04,19,04,13,2.40
2011,04,19,04,14,2.40
2011,04,19,04,15,2.30
2011,04,19,04,16,2.30
2011,04,19,04,17,2.30
2011,04,19,04,18,2.30
2011,04,19,04,19,2.30
2011,04,19,04,20,2.20
2011,04,19,04,21,2.20
2011,04,19,04,22,2.20
2011,04,19,04,23,2.10
2011,04,19,04,24,2.10
2011,04,19,04,25,2.10
2011,04,19,04,26,2.00
2011,04,19,04,27,2.00
2011,04,19,04,28,2.00
2011,04,19,04,29,2.00
2011,04,19,04,30,1.90
2011,04,19,04,31,1.90
2011,04,19,04,32,1.90
2011,04,19,04,33,1.90
2011,04,19,04,34,1.90
2011,04,19,04,35,1.90
2011,04,19,04,36,1.80
2011,04,19,04,37,1.80
2011,04,19,04,38,1.80
2011,04,19,04,39,1.80
2011,04,19,04,40,1.80
2011,04,19,04,41,1.70
2011,04,19,04,42,1.70
2011,04,19,04,43,1.70
2011,04,19,04,44,1.60
2011,04,19,04,45,1.60
2011,04,19,04,46,1.60
2011,04,19,04,47,1.60
2011,04,19,04,48,1.50
2011,04,19,04,49,1.50
2011,04,19,04,50,1.40
2011,04,19,04,51,1.40
2011,04,19,04,52,1.30
2011,04,19,04,53,1.30
2011,04,19,04,54,1.30
2011,04,19,04,55,1.30
2011,04,19,04,56,1.30
2011,04,19,04,57,1.30
2011,04,19,04,58,1.30
2011,04,19,04,59,1.30
2011,04,19,05,00,1.30
2011,04,19,05,01,1.30
2011,04,19,05,02,1.20
2011,04,19,05,03,1.20
2011,04,19,05,04,1.20
2011,04,19,05,05,1.20
2011,04,19,05,06,1.20
2011,04,19,05,07,1.20
2011,04,19,05,08,1.20
2011,04,19,05,09,1.20
2011,04,19,05,10,1.20
2011,04,19,05,11,1.10
2011,04,19,05,12,1.10
2011,04,19,05,13,1.10
2011,04,19,05,14,1.10
2011,04,19,05,15,1.10
2011,04,19,05,16,1.10
2011,04,19,05,17,1.10
2011,04,19,05,18,1.10
2011,04,19,05,19,1.10
2011,04,19,05,20,1.10
2011,04,19,05,21,1.10
2011,04,19,05,22,1.10
2011,04,19,05,23,1.10
2011,04,19,05,24,1.10
2011,04,19,05,25,1.20
2011,04,19,05,26,1.20
2011,04,19,05,27,1.20
2011,04,19,05,28,1.20
2011,04,19,05,29,1.20
2011,04,19,05,30,1.20
2011,04,19,05,31,1.20
2011,04,19,05,32,1.20
2011,04,19,05,33,1.30
2011,04,19,05,34,1.30
2011,04,19,05,35,1.30
2011,04,19,05,36,1.30
2011,04,19,05,37,1.30
2011,04,19,05,38,1.30
2011,04,19,05,39,1.30
2011,04,19,05,40,1.30
2011,04,19,05,41,1.30
2011,04,19,05,42,1.30
2011,04,19,05,43,1.30
2011,04,19,05,44,1.30
2011,04,19,05,45,1.40
2011,04,19,05,46,1.40
2011,04,19,05,47,1.40
2011,04,19,05,48,1.40
2011,04,19,05,49,1.40
2011,04,19,05,50,1.40
2011,04,19,05,51,1.40
2011,04,19,05,52,1.50
2011,04,19,05,53,1.50
2011,04,19,05,54,1.50
2011,04,19,05,55,1.50
2011,04,19,05,56,1.50
2011,04,19,05,57,1.60
2011,04,19,05,58,1.60
2011,04,19,05,59,1.60
2011,04,19,06,00,1.60
2011,04,19,06,01,1.60
2011,04,19,06,02,1.60
2011,04,19,06,03,1.60
2011,04,19,06,04,1.60
2011,04,19,06,05,1.60
2011,04,19,06,06,1.70
2011,04,19,06,07,1.70
2011,04,19,06,08,1.70
2011,04,19,06,09,1.70
2011,04,19,06,10,1.70
2011,04,19,06,11,1.70
2011,04,19,06,12,1.70
2011,04,19,06,13,1.80
2011,04,19,06,14,1.80
2011,04,19,06,15,1.80
2011,04,19,06,16,1.80
2011,04,19,06,17,1.80
2011,04,19,06,18,1.80
2011,04,19,06,19,1.90
2011,04,19,06,20,1.90
2011,04,19,06,21,1.90
2011,04,19,06,22,1.90
2011,04,19,06,23,1.90
2011,04,19,06,24,1.90
2011,04,19,06,25,1.90
2011,04,19,06,26,1.90
2011,04,19,06,27,1.90
2011,04,19,06,28,1.90
2011,04,19,06,29,1.90
2011,04,19,06,30,1.90
2011,04,19,06,31,1.90
2011,04,19,06,32,1.90
2011,04,19,06,33,1.90
2011,04,19,06,34,1.90
2011,04,19,06,35,1.90
2011,04,19,06,36,1.90
2011,04,19,06,37,1.90
2011,04,19,10,00,7.80
2011,04,19,10,01,7.80
2011,04,19,10,02,7.80
2011,04,19,10,03,7.80
2011,04,19,10,04,7.70
2011,04,19,10,05,7.60
2011,04,19,10,06,7.60
2011,04,19,10,07,7.60
2011,04,19,10,08,7.50
2011,04,19,10,09,7.40
2011,04,19,10,10,7.30
2011,04,19,10,11,7.30
2011,04,19,10,12,7.30
2011,04,19,10,13,7.20
2011,04,19,10,14,7.20
2011,04,19,10,15,7.20
2011,04,19,10,16,7.20
2011,04,19,10,17,7.10
2011,04,19,10,18,7.10
2011,04,19,10,19,7.10
2011,04,19,10,20,7.10
2011,04,19,10,21,7.10
2011,04,19,10,22,7.10
2011,04,19,10,23,7.10
2011,04,19,10,24,7.10
2011,04,19,10,25,7.10
2011,04,19,10,26,7.10
2011,04,19,10,27,7.10
2011,04,19,10,28,7.10
2011,04,19,10,29,7.10
2011,04,19,10,30,7.10
2011,04,19,10,31,7.20
2011,04,19,10,32,7.20
2011,04,19,10,33,7.20
2011,04,19,10,34,7.20
2011,04,19,10,35,7.20
2011,04,19,10,36,7.30
2011,04,19,10,37,7.40
2011,04,19,10,38,7.50
2011,04,19,10,39,7.50
2011,04,19,10,40,7.70
2011,04,19,10,41,7.90
2011,04,19,10,42,8.00
2011,04,19,10,43,8.10
2011,04,19,10,44,8.20
2011,04,19,10,45,8.30
2011,04,19,10,46,8.30
2011,04,19,10,47,8.40
2011,04,19,10,48,8.50
2011,04,19,10,49,8.60
2011,04,19,10,50,8.70
2011,04,19,10,51,8.70
2011,04,19,10,52,8.70
2011,04,19,10,53,8.50
2011,04,19,10,54,8.40
2011,04,19,10,55,8.30
2011,04,19,10,56,8.20
2011,04,19,10,57,8.10
2011,04,19,10,58,8.00
2011,04,19,10,59,8.00
2011,04,19,11,00,7.90
2011,04,19,11,01,7.90
2011,04,19,11,02,7.90
2011,04,19,11,03,7.90
2011,04,19,11,04,7.90
2011,04,19,11,05,7.90
2011,04,19,11,06,8.00
2011,04,19,11,07,8.00
2011,04,19,11,08,8.00
2011,04,19,11,09,8.10
2011,04,19,11,10,8.00
2011,04,19,11,11,7.90
2011,04,19,11,12,7.80
2011,04,19,11,13,7.70
2011,04,19,11,14,7.70
2011,04,19,11,15,7.70
2011,04,19,11,16,7.70
2011,04,19,11,17,7.70
2011,04,19,11,18,7.70
2011,04,19,11,19,7.80
2011,04,19,11,20,7.80
2011,04,19,11,21,7.90
2011,04,19,11,22,8.00
2011,04,19,11,23,8.10
2011,04,19,11,24,8.20
2011,04,19,11,25,8.30
2011,04,19,11,26,8.40
2011,04,19,11,27,8.40
2011,04,19,11,28,8.40
2011,04,19,11,29,8.40
2011,04,19,11,30,8.40
2011,04,19,11,31,8.50
2011,04,19,11,32,8.50
2011,04,19,11,33,8.60
2011,04,19,11,34,8.60
2011,04,19,11,35,8.60
2011,04,19,11,36,8.60
2011,04,19,11,37,8.70
2011,04,19,11,38,8.60
2011,04,19,11,39,8.50
2011,04,19,11,40,8.30
2011,04,19,11,41,8.20
2011,04,19,11,42,8.10
2011,04,19,11,43,8.10
2011,04,19,11,44,8.00
2011,04,19,11,45,7.90
2011,04,19,11,46,7.80
2011,04,19,11,47,7.90
2011,04,19,11,48,7.90
2011,04,19,11,49,7.90
2011,04,19,11,50,7.90
2011,04,19,11,51,7.90
2011,04,19,11,52,7.90
2011,04,19,11,53,7.90
2011,04,19,11,54,7.90
2011,04,19,11,55,7.90
2011,04,19,11,56,7.90
2011,04,19,11,57,7.90
2011,04,19,11,58,7.90
2011,04,19,11,59,8.00
2011,04,19,12,00,8.10
2011,04,19,12,01,8.10
2011,04,19,12,02,8.10
2011,04,19,12,03,8.10
2011,04,19,12,04,8.10
2011,04,19,12,05,8.20
2011,04,19,12,06,8.20
2011,04,19,12,07,8.20
2011,04,19,12,08,8.20
2011,04,19,12,09,8.20
2011,04,19,12,10,8.20
2011,04,19,12,11,8.20
2011,04,19,12,12,8.30
2011,04,19,12,13,8.30
2011,04,19,12,14,8.30
2011,04,19,12,15,8.30
2011,04,19,12,16,8.30
2011,04,19,12,17,8.30
2011,04,19,12,18,8.30
2011,04,19,12,19,8.30
2011,04,19,12,20,8.30
2011,04,19,12,21,8.20
2011,04,19,12,22,8.20
2011,04,19,12,23,8.20
2011,04,19,12,24,8.20
2011,04,19,12,25,8.20
2011,04,19,12,26,8.10
2011,04,19,12,27,8.10
2011,04,19,12,28,8.00
2011,04,19,12,29,8.00
2011,04,19,12,30,7.90
2011,04,19,12,31,7.80
2011,04,19,12,32,7.70
2011,04,19,12,33,7.60
2011,04,19,12,34,7.50
2011,04,19,12,35,7.50
2011,04,19,12,36,7.40
2011,04,19,12,37,7.30
2011,04,19,12,38,7.30
2011,04,19,12,39,7.20
2011,04,19,12,40,7.20
2011,04,19,12,41,7.20
2011,04,19,12,42,7.10
2011,04,19,12,43,7.10
2011,04,19,12,44,7.10
2011,04,19,12,45,7.00
2011,04,19,12,46,7.10
2011,04,19,12,47,7.10
2011,04,19,12,48,7.20
2011,04,19,12,49,7.20
2011,04,19,12,50,7.20
2011,04,19,12,51,7.20
2011,04,19,12,52,7.30
2011,04,19,12,53,7.50
2011,04,19,12,54,7.60
2011,04,19,12,55,7.70
2011,04,19,12,56,7.80
2011,04,19,12,57,7.80
2011,04,19,12,58,7.80
2011,04,19,12,59,7.70
2011,04,19,13,00,7.70
2011,04,19,13,01,7.80
2011,04,19,13,02,7.80
2011,04,19,13,03,7.90
2011,04,19,13,04,8.00
2011,04,19,13,05,8.10
2011,04,19,13,06,8.20
2011,04,19,13,07,8.30
2011,04,19,13,08,8.40
2011,04,19,13,09,8.50
2011,04,19,13,10,8.50
2011,04,19,13,11,8.50
2011,04,19,13,12,8.60
2011,04,19,13,13,8.60
2011,04,19,13,14,8.60
2011,04,19,13,15,8.70
2011,04,19,13,16,8.70
2011,04,19,13,17,8.70
2011,04,19,13,18,8.70
2011,04,19,13,19,8.70
2011,04,19,13,20,8.70
2011,04,19,13,21,8.80
2011,04,19,13,22,8.90
2011,04,19,13,23,9.00
2011,04,19,13,24,9.10
2011,04,19,13,25,9.10
2011,04,19,13,26,9.20
2011,04,19,13,27,9.10
2011,04,19,13,28,9.10
2011,04,19,13,29,9.10
2011,04,19,13,30,9.10
2011,04,19,13,31,9.20
2011,04,19,13,32,9.30
2011,04,19,13,33,9.40
2011,04,19,13,34,9.50
2011,04,19,13,35,9.60
2011,04,19,13,36,9.70
2011,04,19,13,37,9.70
2011,04,19,13,38,9.70
2011,04,19,13,39,9.70
2011,04,19,13,40,9.70
2011,04,19,13,41,9.60
2011,04,19,13,42,9.50
2011,04,19,13,43,9.30
2011,04,19,13,44,9.10
2011,04,19,13,45,9.10
2011,04,19,13,46,9.00
2011,04,19,13,47,9.00
2011,04,19,13,48,8.90
2011,04,19,13,49,8.90
2011,04,19,13,50,8.90
2011,04,19,13,51,8.80
2011,04,19,13,52,8.80
2011,04,19,13,53,8.80
2011,04,19,13,54,8.80
2011,04,19,13,55,8.80
2011,04,19,13,56,8.70
2011,04,19,13,57,8.70
2011,04,19,13,58,8.70
2011,04,19,13,59,8.70
2011,04,19,14,00,8.70
2011,04,19,14,01,8.70
2011,04,19,14,02,8.70
2011,04,19,14,03,8.70
2011,04,19,14,04,8.70
2011,04,19,14,05,8.70
2011,04,19,14,06,8.70
2011,04,19,14,07,8.70
2011,04,19,14,08,8.70
2011,04,19,14,09,8.70
2011,04,19,14,10,8.70
2011,04,19,14,11,8.70
2011,04,19,14,12,8.60
2011,04,19,14,13,8.60
2011,04,19,14,14,8.60
2011,04,19,14,15,8.60
2011,04,19,14,16,8.60
2011,04,19,14,17,8.50
2011,04,19,14,18,8.50
2011,04,19,14,19,8.60
2011,04,19,14,20,8.60
2011,04,19,14,21,8.70
2011,04,19,14,22,8.80
2011,04,19,14,23,8.90
2011,04,19,14,24,9.00
2011,04,19,14,25,9.10
2011,04,19,14,26,9.10
2011,04,19,14,27,9.10
2011,04,19,14,28,9.00
2011,04,19,14,29,9.00
2011,04,19,14,30,9.00
2011,04,19,14,31,9.00
2011,04,19,14,32,9.10
2011,04,19,14,33,9.20
2011,04,19,14,34,9.40
2011,04,19,14,35,9.60
2011,04,19,14,36,9.70
2011,04,19,14,37,9.70
2011,04,19,14,38,9.70
2011,04,19,14,39,9.80
2011,04,19,14,40,9.70
2011,04,19,14,41,9.70
2011,04,19,14,42,9.60
2011,04,19,14,43,9.60
2011,04,19,14,44,9.50
2011,04,19,14,45,9.40
2011,04,19,14,46,9.40
2011,04,19,14,47,9.30
2011,04,19,14,48,9.30
2011,04,19,14,49,9.20
2011,04,19,14,50,9.30
2011,04,19,14,51,9.20
2011,04,19,14,52,9.20
2011,04,19,14,53,9.10
2011,04,19,14,54,9.10
2011,04,19,14,55,9.00
2011,04,19,14,56,9.00
2011,04,19,14,57,8.90
2011,04,19,14,58,8.90
2011,04,19,14,59,8.90
2011,04,19,15,00,8.90
2011,04,19,15,01,8.80
2011,04,19,15,02,8.80
2011,04,19,15,03,8.80
2011,04,19,15,04,8.80
2011,04,19,15,05,8.80
2011,04,19,15,06,8.80
2011,04,19,15,07,8.80
2011,04,19,15,08,8.90
2011,04,19,15,09,8.90
2011,04,19,15,10,8.80
2011,04,19,15,11,8.80
2011,04,19,15,12,8.80
2011,04,19,15,13,8.80
2011,04,19,15,14,8.70
2011,04,19,15,15,8.70
2011,04,19,15,16,8.80
2011,04,19,15,17,8.90
2011,04,19,15,18,9.00
2011,04,19,15,19,9.10
2011,04,19,15,20,9.10
2011,04,19,15,21,9.20
2011,04,19,15,22,9.30
2011,04,19,15,23,9.30
2011,04,19,15,24,9.40
2011,04,19,15,25,9.40
2011,04,19,15,26,9.40
2011,04,19,15,27,9.30
2011,04,19,15,28,9.20
2011,04,19,15,29,9.10
2011,04,19,15,30,9.00
2011,04,19,15,31,9.00
2011,04,19,15,32,9.00
2011,04,19,15,33,9.00
2011,04,19,15,34,9.00
2011,04,19,15,35,9.00
2011,04,19,15,36,9.00
2011,04,19,15,37,9.00
2011,04,19,15,38,9.10
2011,04,19,15,39,9.10
2011,04,19,15,40,9.10
2011,04,19,15,41,9.10
2011,04,19,15,42,9.10
2011,04,19,15,43,9.10
2011,04,19,15,44,9.10
2011,04,19,15,45,9.20
2011,04,19,15,46,9.20
2011,04,19,15,47,9.20
2011,04,19,15,48,9.30
2011,04,19,15,49,9.30
2011,04,19,15,50,9.40
2011,04,19,15,51,9.40
2011,04,19,15,52,9.50
2011,04,19,15,53,9.60
2011,04,19,15,54,9.60
2011,04,19,15,55,9.60
2011,04,19,15,56,9.60
2011,04,19,15,57,9.70
2011,04,19,15,58,9.70
2011,04,19,15,59,9.70
2011,04,19,16,00,9.80
2011,04,19,16,01,9.80
2011,04,19,16,02,9.80
2011,04,19,16,03,9.80
2011,04,19,16,04,9.80
2011,04,19,16,05,9.90
2011,04,19,16,06,9.90
2011,04,19,16,07,9.90
2011,04,19,16,08,9.90
2011,04,19,16,09,9.90
2011,04,19,16,10,9.90
2011,04,19,16,11,10.00
2011,04,19,16,12,9.90
2011,04,19,16,13,9.90
2011,04,19,16,14,9.80
2011,04,19,16,15,9.70
2011,04,19,16,16,9.70
2011,04,19,16,17,9.70
2011,04,19,16,18,9.70
2011,04,19,16,19,9.70
2011,04,19,16,20,9.70
2011,04,19,16,21,9.70
2011,04,19,16,22,9.70
2011,04,19,16,23,9.70
2011,04,19,16,24,9.70
2011,04,19,16,25,9.80
2011,04,19,16,26,9.80
2011,04,19,16,27,9.80
2011,04,19,16,28,9.80
2011,04,19,16,29,9.80
2011,04,19,16,30,9.80
2011,04,19,16,31,9.90
2011,04,19,16,32,9.90
2011,04,19,16,33,10.00
2011,04,19,16,34,10.10
2011,04,19,16,35,10.10
2011,04,19,16,36,10.10
2011,04,19,16,37,10.10
2011,04,19,16,38,10.10
2011,04,19,16,39,10.10
2011,04,19,16,40,10.10
2011,04,19,16,41,10.00
2011,04,19,16,42,10.00
2011,04,19,16,43,10.00
2011,04,19,16,44,10.00
2011,04,19,16,45,10.00
2011,04,19,16,46,10.00
2011,04,19,16,47,10.10
2011,04,19,16,48,10.10
2011,04,19,16,49,10.10
2011,04,19,16,50,10.10
2011,04,19,16,51,10.10
2011,04,19,16,52,10.10
2011,04,19,16,53,10.10
2011,04,19,16,54,10.20
2011,04,19,16,55,10.20
2011,04,19,16,56,10.10
2011,04,19,16,57,10.10
2011,04,19,16,58,10.00
2011,04,19,16,59,10.00
2011,04,19,17,00,10.00
2011,04,19,17,01,10.00
2011,04,19,17,02,10.00
2011,04,19,17,03,10.00
2011,04,19,17,04,10.10
2011,04,19,17,05,10.00
2011,04,19,17,06,10.00
2011,04,19,17,07,10.00
2011,04,19,17,08,10.00
2011,04,19,17,09,10.00
2011,04,19,17,10,10.00
2011,04,19,17,11,10.00
2011,04,19,17,12,10.00
2011,04,19,17,13,10.00
2011,04,19,17,14,9.90
2011,04,19,17,15,9.80
2011,04,19,17,16,9.80
2011,04,19,17,17,9.70
2011,04,19,17,18,9.70
2011,04,19,17,19,9.60
2011,04,19,17,20,9.60
2011,04,19,17,21,9.50
2011,04,19,17,22,9.50
2011,04,19,17,23,9.50
2011,04,19,17,24,9.50
2011,04,19,17,25,9.50
2011,04,19,17,26,9.50
2011,04,19,17,27,9.50
2011,04,19,17,28,9.50
2011,04,19,17,29,9.40
2011,04,19,17,30,9.40
2011,04,19,17,31,9.40
2011,04,19,17,32,9.40
2011,04,19,17,33,9.30
2011,04,19,17,34,9.30
2011,04,19,17,35,9.30
2011,04,19,17,36,9.30
2011,04,19,17,37,9.30
2011,04,19,17,38,9.30
2011,04,19,17,39,9.20
2011,04,19,17,40,9.20
2011,04,19,17,41,9.20
2011,04,19,17,42,9.20
2011,04,19,17,43,9.20
2011,04,19,17,44,9.20
2011,04,19,17,45,9.20
2011,04,19,17,46,9.30
2011,04,19,17,47,9.30
2011,04,19,17,48,9.30
2011,04,19,17,49,9.30
2011,04,19,17,50,9.40
2011,04,19,17,51,9.40
2011,04,19,17,52,9.50
2011,04,19,17,53,9.50
2011,04,19,17,54,9.50
2011,04,19,17,55,9.50
2011,04,19,17,56,9.50
2011,04,19,17,57,9.50
2011,04,19,17,58,9.40
2011,04,19,17,59,9.40
2011,04,19,18,00,9.40
2011,04,19,18,01,9.40
2011,04,19,18,02,9.30
2011,04,19,18,03,9.30
2011,04,19,18,04,9.30
2011,04,19,18,05,9.30
2011,04,19,18,06,9.30
2011,04,19,18,07,9.30
2011,04,19,18,08,9.30
2011,04,19,18,09,9.30
2011,04,19,18,10,9.30
2011,04,19,18,11,9.30
2011,04,19,18,12,9.40
2011,04,19,18,13,9.40
2011,04,19,18,14,9.40
2011,04,19,18,15,9.40
2011,04,19,18,16,9.40
2011,04,19,18,17,9.40
2011,04,19,18,18,9.40
2011,04,19,18,19,9.40
2011,04,19,18,20,9.40
2011,04,19,18,21,9.40
2011,04,19,18,22,9.40
2011,04,19,18,23,9.40
2011,04,19,18,24,9.40
2011,04,19,18,25,9.30
2011,04,19,18,26,9.30
2011,04,19,18,27,9.30
2011,04,19,18,28,9.30
2011,04,19,18,29,9.30
2011,04,19,18,30,9.30
2011,04,19,18,31,9.30
2011,04,19,18,32,9.30
2011,04,19,18,33,9.30
2011,04,19,18,34,9.20
2011,04,19,18,35,9.20
2011,04,19,18,36,9.30
2011,04,19,18,37,9.30
2011,04,19,18,38,9.30
2011,04,19,18,39,9.30
2011,04,19,18,40,9.30
2011,04,19,18,41,9.20
2011,04,19,18,42,9.20
2011,04,19,18,43,9.20
2011,04,19,18,44,9.20
2011,04,19,18,45,9.20
2011,04,19,18,46,9.20
2011,04,19,18,47,9.20
2011,04,19,18,48,9.20
2011,04,19,18,49,9.20
2011,04,19,18,50,9.10
2011,04,19,18,51,9.10
2011,04,19,18,52,9.10
2011,04,19,18,53,9.10
2011,04,19,18,54,9.10
2011,04,19,18,55,9.10
2011,04,19,18,56,9.10
2011,04,19,18,57,9.10
2011,04,19,18,58,9.10
2011,04,19,18,59,9.00
2011,04,19,19,00,9.00
2011,04,19,19,01,9.00
2011,04,19,19,02,8.90
2011,04,19,19,03,8.90
2011,04,19,19,04,8.90
2011,04,19,19,05,8.90
2011,04,19,19,06,8.90
2011,04,19,19,07,8.90
2011,04,19,19,08,8.90
2011,04,19,19,09,8.90
2011,04,19,19,10,8.90
2011,04,19,19,11,8.90
2011,04,19,19,12,8.80
2011,04,19,19,13,8.80
2011,04,19,19,14,8.80
2011,04,19,19,15,8.80
2011,04,19,19,16,8.80
2011,04,19,19,17,8.80
2011,04,19,19,18,8.80
2011,04,19,19,19,8.80
2011,04,19,19,20,8.80
2011,04,19,19,21,8.80
2011,04,19,19,22,8.80
2011,04,19,19,23,8.70
2011,04,19,19,24,8.70
2011,04,19,19,25,8.70
2011,04,19,19,26,8.70
2011,04,19,19,27,8.60
2011,04,19,19,28,8.60
2011,04,19,19,29,8.60
2011,04,19,19,30,8.60
2011,04,19,19,31,8.50
2011,04,19,19,32,8.50
2011,04,19,19,33,8.40
2011,04,19,19,34,8.40
2011,04,19,19,35,8.30
2011,04,19,19,36,8.30
2011,04,19,19,37,8.20
2011,04,19,19,38,8.20
2011,04,19,19,39,8.20
2011,04,19,19,40,8.10
2011,04,19,19,41,8.10
2011,04,19,19,42,8.00
2011,04,19,19,43,7.90
2011,04,19,19,44,7.90
2011,04,19,19,45,7.80
2011,04,19,19,46,7.80
2011,04,19,19,47,7.70
2011,04,19,19,48,7.70
2011,04,19,19,49,7.70
2011,04,19,19,50,7.60
2011,04,19,19,51,7.60
2011,04,19,19,52,7.50
2011,04,19,19,53,7.50
2011,04,19,19,54,7.40
2011,04,19,19,55,7.40
2011,04,19,19,56,7.40
2011,04,19,19,57,7.30
2011,04,19,19,58,7.30
2011,04,19,19,59,7.20
2011,04,19,20,00,7.20
2011,04,19,20,01,7.20
2011,04,19,20,02,7.10
2011,04,19,20,03,7.00
2011,04,19,20,04,7.00
2011,04,19,20,05,6.90
2011,04,19,20,06,6.80
2011,04,19,20,07,6.80
2011,04,19,20,08,6.70
2011,04,19,20,09,6.70
2011,04,19,20,10,6.60
2011,04,19,20,11,6.50
2011,04,19,20,12,6.50
2011,04,19,20,13,6.40
2011,04,19,20,14,6.40
2011,04,19,20,15,6.40
2011,04,19,20,16,6.30
2011,04,19,20,17,6.30
2011,04,19,20,18,6.30
2011,04,19,20,19,6.20
2011,04,19,20,20,6.20
2011,04,19,20,21,6.20
2011,04,19,20,22,6.10
2011,04,19,20,23,6.10
2011,04,19,20,24,6.00
2011,04,19,20,25,6.00
2011,04,19,20,26,5.90
2011,04,19,20,27,5.90
2011,04,19,20,28,5.80
2011,04,19,20,29,5.80
2011,04,19,20,30,5.70
2011,04,19,20,31,5.70
2011,04,19,20,32,5.70
2011,04,19,20,33,5.70
2011,04,19,20,34,5.60
2011,04,19,20,35,5.50
2011,04,19,20,36,5.50
2011,04,19,20,37,5.40
2011,04,19,20,38,5.40
2011,04,19,20,39,5.40
2011,04,19,20,40,5.40
2011,04,19,20,41,5.30
2011,04,19,20,42,5.30
2011,04,19,20,43,5.20
2011,04,19,20,44,5.20
2011,04,19,20,45,5.20
2011,04,19,20,46,5.10
2011,04,19,20,47,5.10
2011,04,19,20,48,5.10
2011,04,19,20,49,5.10
2011,04,19,20,50,5.00
2011,04,19,20,51,5.00
2011,04,19,20,52,4.90
2011,04,19,20,53,4.90
2011,04,19,20,54,4.80
2011,04,19,20,55,4.80
2011,04,19,20,56,4.80
2011,04,19,20,57,4.80
2011,04,19,20,58,4.70
2011,04,19,20,59,4.70
2011,04,19,21,00,4.70
2011,04,19,21,01,4.60
2011,04,19,21,02,4.60
2011,04,19,21,03,4.60
2011,04,19,21,04,4.50
2011,04,19,21,05,4.50
2011,04,19,21,06,4.50
2011,04,19,21,07,4.50
2011,04,19,21,08,4.40
2011,04,19,21,09,4.40
2011,04,19,21,10,4.40
2011,04,19,21,11,4.30
2011,04,19,21,12,4.30
2011,04,19,21,13,4.30
2011,04,19,21,14,4.30
2011,04,19,21,15,4.20
2011,04,19,21,16,4.20
2011,04,19,21,17,4.20
2011,04,19,21,18,4.20
2011,04,19,21,19,4.10
2011,04,19,21,20,4.10
2011,04,19,21,21,4.10
2011,04,19,21,22,4.10
2011,04,19,21,23,4.00
2011,04,19,21,24,4.00
2011,04,19,21,25,4.00
2011,04,19,21,26,4.00